JCSAT-110A (JCSAT-15)

Last updated on Wed Sep 09 2026 00:03:01 GMT+0000 (Coordinated Universal Time)

1 41903U 16082A 26251.53794841 -.00000372 00000+0 00000+0 0 9992 2 41903 0.0164 137.5486 0000631 58.7407 95.0403 1.00269799 35591
UTC large
Height (km)
Speed (km/s)
/
Latitude / Longitude
Inclination (degrees)
Orbital Period (minutes)
Azimuth
Elevation
Range (km)
Doppler Factor

Next 0 passes for location: London (51.5072 / 0.1276)

No passes found over London.
JCSAT-110A (JCSAT-15)